Weather reports worldwide

Advertisment
Ustica, Italy (16400): temperature & dewpoint: 01.07.2020 20:00:00 - 07.07.2020 20:00:00 (CEST)Ustica, Italy (16400): wind speed: 01.07.2020 20:00:00 - 07.07.2020 20:00:00 (CEST)Ustica, Italy (16400): wind direction: 01.07.2020 20:00:00 - 07.07.2020 20:00:00 (CEST)Ustica, Italy (16400): reduced air pressure: 01.07.2020 20:00:00 - 07.07.2020 20:00:00 (CEST)Ustica, Italy (16400): visibility: 01.07.2020 20:00:00 - 07.07.2020 20:00:00 (CEST)Ustica, Italy (16400): sunshine duration: 01.07.2020 20:00:00 - 07.07.2020 20:00:00 (CEST)
Date & Time tt [°C] td [°C] ff [km/h] ff [kn] dd ppp [hPa] vv [km] sd [min]
07.07.2020 20:00:00 25,6 23,1 5 3 NNE 1012,4 25 30
07.07.2020 19:00:00 26,8 24,4 11 6 N 1011,4 25 60
07.07.2020 18:00:00 28,0 24,0 11 6 N 1011,3 25 60
07.07.2020 17:00:00 29,2 24,1 9 5 N 1011,0 25 60
07.07.2020 16:00:00 29,8 23,3 9 5 N 1011,2 30 60
07.07.2020 15:00:00 29,8 23,3 4 2 N 1011,2 25 60
07.07.2020 14:00:00 29,0 24,2 8 4 NNW 1011,1 25 60
07.07.2020 13:00:00 28,4 24,7 8 4 NNW 1010,9 25 60
07.07.2020 12:00:00 26,6 23,6 4 2 N 1010,3 25 60
07.07.2020 11:00:00 26,6 23,7 4 2 N 1009,8 20 60
07.07.2020 10:00:00 26,2 23,3 4 2 N 1009,3 20 60
07.07.2020 09:00:00 25,2 22,9 4 2 N 1009,0 20 60
07.07.2020 08:00:00 23,4 23,1 5 3 S 1008,7 20 12
07.07.2020 07:00:00 - - - - - - - -
07.07.2020 06:00:00 - - - - - - - -
07.07.2020 05:00:00 - - - - - - - -
07.07.2020 04:00:00 - - - - - - - -
07.07.2020 03:00:00 - - - - - - - -
07.07.2020 02:00:00 - - - - - - - -
07.07.2020 01:00:00 - - - - - - - -
07.07.2020 00:00:00 - - - - - - - -
06.07.2020 23:00:00 - - - - - - - -
06.07.2020 22:00:00 - - - - - - - -
06.07.2020 21:00:00 - - - - - - - -
06.07.2020 20:00:00 23,6 23,3 16 9 NW 1008,8 18 24
06.07.2020 19:00:00 24,2 23,3 16 9 NNW 1008,7 20 60
06.07.2020 18:00:00 25,4 23,3 18 10 NNW 1008,7 20 60
06.07.2020 17:00:00 26,8 24,1 16 9 NNW 1009,5 20 60
06.07.2020 16:00:00 27,0 24,3 18 10 NNW 1009,6 20 60
06.07.2020 15:00:00 27,0 24,8 16 9 NNW 1009,8 20 48
06.07.2020 14:00:00 26,0 24,0 18 10 NW 1010,4 20 48
06.07.2020 13:00:00 26,8 24,7 18 10 NNW 1010,7 20 60
06.07.2020 12:00:00 27,0 24,8 4 2 N 1010,5 20 48
06.07.2020 11:00:00 27,0 24,8 11 6 NNW 1010,7 20 60
06.07.2020 10:00:00 26,8 25,4 4 2 N 1010,8 20 60
06.07.2020 09:00:00 25,0 23,1 13 7 W 1011,0 20 60
06.07.2020 08:00:00 24,0 21,9 0 0 N 1011,1 20 12
06.07.2020 07:00:00 - - - - - - - -
06.07.2020 06:00:00 - - - - - - - -
06.07.2020 05:00:00 - - - - - - - -
06.07.2020 04:00:00 - - - - - - - -
06.07.2020 03:00:00 - - - - - - - -
06.07.2020 02:00:00 - - - - - - - -
06.07.2020 01:00:00 - - - - - - - -
06.07.2020 00:00:00 - - - - - - - -
05.07.2020 23:00:00 - - - - - - - -
05.07.2020 22:00:00 - - - - - - - -
05.07.2020 21:00:00 - - - - - - - -
05.07.2020 20:00:00 24,8 21,7 0 0 N 1012,7 20 30
05.07.2020 19:00:00 25,0 20,3 0 0 N 1014,0 20 48
05.07.2020 18:00:00 27,0 22,2 0 0 N 1014,1 20 36
05.07.2020 17:00:00 27,0 21,1 0 0 N 1013,5 20 36
05.07.2020 16:00:00 29,0 22,5 0 0 N 1013,7 20 48
05.07.2020 15:00:00 29,0 23,4 0 0 N 1014,1 20 48
05.07.2020 14:00:00 29,0 23,9 0 0 N 1014,3 20 48
05.07.2020 13:00:00 29,8 24,2 0 0 N 1014,2 20 60
05.07.2020 12:00:00 29,2 23,6 0 0 N 1014,1 20 60
05.07.2020 11:00:00 28,0 23,6 0 0 N 1014,4 20 60
05.07.2020 10:00:00 27,4 23,2 0 0 N 1014,4 20 60
05.07.2020 09:00:00 26,4 23,1 0 0 N 1014,5 20 60
05.07.2020 08:00:00 24,8 22,5 0 0 N 1014,8 20 12
05.07.2020 07:00:00 - - - - - - - -
05.07.2020 06:00:00 - - - - - - - -
05.07.2020 05:00:00 - - - - - - - -
05.07.2020 04:00:00 - - - - - - - -
05.07.2020 03:00:00 - - - - - - - -
05.07.2020 02:00:00 - - - - - - - -
05.07.2020 01:00:00 - - - - - - - -
05.07.2020 00:00:00 - - - - - - - -
04.07.2020 23:00:00 - - - - - - - -
04.07.2020 22:00:00 - - - - - - - -
04.07.2020 21:00:00 - - - - - - - -
04.07.2020 20:00:00 24,0 19,7 0 0 N 1014,6 20 36
04.07.2020 19:00:00 25,0 18,7 0 0 N 1014,7 20 60
04.07.2020 18:00:00 26,4 17,7 0 0 N 1014,7 20 60
04.07.2020 17:00:00 27,0 18,0 0 0 N 1014,8 20 60
04.07.2020 16:00:00 27,8 18,8 0 0 N 1015,0 20 60
04.07.2020 15:00:00 28,6 19,2 0 0 N 1015,2 20 48
04.07.2020 14:00:00 29,2 20,4 0 0 N 1015,2 20 60
04.07.2020 13:00:00 29,0 19,9 13 7 N 1015,4 20 60
04.07.2020 12:00:00 28,4 21,9 13 7 N 1014,9 20 60
04.07.2020 11:00:00 27,4 22,0 13 7 N 1014,7 20 60
04.07.2020 10:00:00 27,4 23,0 4 2 N 1014,5 20 60
04.07.2020 09:00:00 27,2 23,5 4 2 N 1014,6 20 60
04.07.2020 08:00:00 25,4 24,0 8 4 N 1014,2 20 54
04.07.2020 07:00:00 - - - - - - - -
04.07.2020 06:00:00 - - - - - - - -
04.07.2020 05:00:00 - - - - - - - -
04.07.2020 04:00:00 - - - - - - - -
04.07.2020 03:00:00 - - - - - - - -
04.07.2020 02:00:00 - - - - - - - -
04.07.2020 01:00:00 - - - - - - - -
04.07.2020 00:00:00 - - - - - - - -
03.07.2020 23:00:00 - - - - - - - -
03.07.2020 22:00:00 - - - - - - - -
03.07.2020 21:00:00 - - - - - - - -
03.07.2020 20:00:00 25,8 25,5 4 2 N 1012,7 20 48
03.07.2020 19:00:00 27,2 -30,0 5 3 N 1012,6 20 60
03.07.2020 18:00:00 28,0 24,7 5 3 N 1013,4 20 60
03.07.2020 17:00:00 29,0 24,2 5 3 N 1013,2 20 60
03.07.2020 16:00:00 29,0 24,5 9 5 N 1013,2 20 60
03.07.2020 15:00:00 30,0 25,8 4 2 N 1013,2 20 60
03.07.2020 14:00:00 28,8 24,7 9 5 NNW 1013,3 20 60
03.07.2020 13:00:00 28,4 24,4 8 4 N 1013,0 20 60
03.07.2020 12:00:00 27,4 23,6 8 4 NNW 1012,9 20 60
03.07.2020 11:00:00 27,4 24,3 8 4 N 1012,7 20 60
03.07.2020 10:00:00 26,8 24,0 8 4 N 1012,7 20 42
03.07.2020 09:00:00 26,2 24,0 8 4 N 1012,1 20 12
03.07.2020 08:00:00 24,0 23,0 4 2 N 1012,0 20 6
03.07.2020 07:00:00 - - - - - - - -
03.07.2020 06:00:00 - - - - - - - -
03.07.2020 05:00:00 - - - - - - - -
03.07.2020 04:00:00 - - - - - - - -
03.07.2020 03:00:00 - - - - - - - -
03.07.2020 02:00:00 - - - - - - - -
03.07.2020 01:00:00 - - - - - - - -
03.07.2020 00:00:00 - - - - - - - -
02.07.2020 23:00:00 - - - - - - - -
02.07.2020 22:00:00 - - - - - - - -
02.07.2020 21:00:00 - - - - - - - -
02.07.2020 20:00:00 23,8 23,8 13 7 WSW 1011,4 20 36
02.07.2020 19:00:00 25,2 25,2 15 8 WSW 1011,4 20 48
02.07.2020 18:00:00 26,6 23,1 18 10 WSW 1011,5 20 36
02.07.2020 17:00:00 27,2 23,1 21 11 SW 1011,7 20 54
02.07.2020 16:00:00 26,8 23,5 21 11 SW 1012,2 20 42
02.07.2020 15:00:00 27,4 24,5 4 2 N 1012,4 20 36
02.07.2020 14:00:00 27,0 24,9 4 2 N 1012,5 20 60
02.07.2020 13:00:00 27,4 25,3 4 2 N 1012,5 20 48
02.07.2020 12:00:00 27,2 25,1 15 8 WSW 1012,4 20 42
02.07.2020 11:00:00 27,2 23,1 16 9 SSW 1012,5 20 54
02.07.2020 10:00:00 28,0 24,2 8 4 S 1012,3 20 60
02.07.2020 09:00:00 26,2 24,9 13 7 SSE 1012,2 20 60
02.07.2020 08:00:00 25,0 23,7 16 9 SSE 1012,1 20 54
02.07.2020 07:00:00 - - - - - - - -
02.07.2020 06:00:00 - - - - - - - -
02.07.2020 05:00:00 - - - - - - - -
02.07.2020 04:00:00 - - - - - - - -
02.07.2020 03:00:00 - - - - - - - -
02.07.2020 02:00:00 - - - - - - - -
02.07.2020 01:00:00 - - - - - - - -
02.07.2020 00:00:00 - - - - - - - -
01.07.2020 23:00:00 - - - - - - - -
01.07.2020 22:00:00 - - - - - - - -
01.07.2020 21:00:00 - - - - - - - -
01.07.2020 20:00:00 25,0 23,9 16 9 SSE 1013,3 20 42

tt = temperature
td = dewpoint
ff = wind speed
dd = wind direction
ppp = reduced air pressure
vv = visibility
sd = sunshine duration

Next stations